Orbital Elements at Epoch 2459000.5 (2020-May-31.0) TDB
Reference: JPL 20 (heliocentric ecliptic J2000)
Element | Value | Uncertainty (1-sigma) | Units |
e | .0920614400826779 | 4.7901e-08 | |
a | 3.106486711380564 | 3.6433e-08 | au |
q | 2.820499071133167 | 1.6565e-07 | au |
i | 16.48703395896211 | 7.0889e-06 | deg |
node | 34.69876376118136 | 1.6151e-05 | deg |
peri | 272.4692130743018 | 4.7485e-05 | deg |
M | 330.5801642067509 | 4.9018e-05 | deg |
tp | 2459163.933251377738 (2020-Nov-10.43325138) | 0.00027383 | TDB |
period | 1999.874197444919 5.48 | 3.5182e-05 9.632e-08 | d yr |
n | .1800113229421848 | 3.1668e-09 | deg/d |
Q | 3.39247435162796 | 3.9787e-08 | au |
|
| | Orbit Determination Parameters
Additional Information
|